Location: D?uga
(50.2667°N, 19.7833°E)
Time: 23:56:52
(UTC+00:00)

SL-4 R/B - Pass Details

Date: 23 May 2024
Orbit: 412 x 601 km, 51.6° (Epoch: 18 June)

Event Time Altitude Azimuth Distance (km) Brightness Sun altitude
Exits shadow 01:11:37 - 176° (S) 1,956 4.4 -11.4°
Reaches altitude 10° 01:11:54 10° 173° (S) 1,884 4.3 -11.3°
Maximum altitude 01:14:36 16° 134° (SE) 1,547 4.2 -11.1°
Drops below altitude 10° 01:17:20 10° 96° (E) 1,935 5.2 -10.8°
Sets 01:20:22 0° 75° (ENE) 2,855 6.6 -10.5°
